• MPC Preparation (Info)

  • MPEC 2013-Q17 : 2013 QU1

    The following Minor Planet Electronic Circular may be linked-to from your own Web pages, but must not otherwise be redistributed electronically.

    A form allowing access to any MPEC is at the bottom of this page.


    Read MPEC 2013-Q16 Read MPEC 2013-Q18


    M.P.E.C. 2013-Q17                                Issued 2013 Aug. 19, 21:24 UT
    
         The Minor Planet Electronic Circulars contain information on unusual
             minor planets and routine data on comets.  They are published
       on behalf of Commission 20 of the International Astronomical Union by the
              Minor Planet Center, Smithsonian Astrophysical Observatory,
                              Cambridge, MA 02138, U.S.A.
    
                 Prepared using the Tamkin Foundation Computer Network
    
                                  MPC@CFA.HARVARD.EDU
                URL https://www.minorplanetcenter.net/    ISSN 1523-6714
    
                                       2013 QU1
    
    Observations:
         K13Q01U* C2013 08 16.33939 20 55 00.005+07 09 11.29         19.3 iLEQ017F51
         K13Q01U  C2013 08 16.35127 20 54 58.748+07 07 32.11         19.6 iLEQ017F51
         K13Q01U |C2013 08 17.05991 20 53 54.18 +05 29 30.3          20.2 VuEQ017807
         K13Q01U |C2013 08 17.06241 20 53 53.93 +05 29 09.7          19.8 VuEQ017807
         K13Q01U |C2013 08 17.06490 20 53 53.67 +05 28 49.2          19.8 VuEQ017807
         K13Q01U |C2013 08 17.06740 20 53 53.43 +05 28 28.5          19.9 VuEQ017807
         K13Q01U |C2013 08 17.06990 20 53 53.17 +05 28 07.3          19.9 VuEQ017807
         K13Q01U KC2013 08 17.93081 20 52 35.58 +03 28 47.1          19.2 RqEQ017160
         K13Q01U KC2013 08 17.93321 20 52 35.33 +03 28 28.1          19.2 RqEQ017160
         K13Q01U KC2013 08 17.93677 20 52 35.01 +03 27 58.4          19.6 RqEQ017160
         K13Q01U KC2013 08 17.94014 20 52 34.68 +03 27 30.0          19.3 RqEQ017160
         K13Q01U KC2013 08 17.96271 20 52 32.53 +03 24 24.5          19.8 RqEQ017204
         K13Q01U KC2013 08 17.97870 20 52 31.02 +03 22 13.4                qEQ017204
         K13Q01U KC2013 08 17.99011 20 52 29.89 +03 20 38.8                qEQ017204
         K13Q01U KC2013 08 18.91087 20 51 12.08 +01 15 28.2          19.4 RqEQ017203
         K13Q01U KC2013 08 18.94649 20 51 08.80 +01 10 40.1          19.2 RqEQ017203
    
    Observer details:
    160 Castelmartini.  Observers M. Jaeger, E. Prosperi, S. Prosperi, W. Vollmann.
        Measurer E. Prosperi.  0.35-m f/10 Schmidt-Cassegrain + CCD.
    203 GiaGa Observatory.  Observers S. Foglia, G. Galli.  Measurer G. Galli.
        0.28-m f/6.8 Schmidt-Cassegrain + CCD.
    204 Schiaparelli Observatory.  Observer L. Buzzi.  0.60-m f/4.64 reflector
        + CCD.
    807 Cerro Tololo.  Observers T. Linder, R. Holmes.  0.41-m f/11
        Ritchey-Chretien + CCD.
    F51 Pan-STARRS 1, Haleakala.  Observers N. Primak, A. Schultz. T. Goggia,
        M. Willman.  Measurer PS1 Science Consortium.  1.8-m Ritchey-Chretien
        + CCD.
    
    Orbital elements:
    2013 QU1                                            PHA, Earth MOID = 0.0164 AU
    Epoch 2013 Apr. 18.0 TT = JDT 2456400.5                 MPC
    M 356.99049              (2000.0)            P               Q
    n   0.76560621     Peri.   55.14569     -0.83437810     +0.46531702
    a   1.1834023      Node   149.16903     -0.44770784     -0.88480440
    e   0.2493041      Incl.   35.20392     +0.32151342     -0.02452009
    P   1.29           H   21.3           G   0.15           U   8
    Residuals in seconds of arc
    130816 F51  0.0   0.1-    130817 807  0.1-  0.2-    130817 204  0.4+  0.6+
    130816 F51  0.0   0.0     130817 160  0.1-  0.4-    130817 204  0.0   0.2-
    130817 807  0.1-  0.1-    130817 160  0.3-  0.4+    130818 203  0.3-  0.0
    130817 807  0.1-  0.0     130817 160  0.1+  0.0     130818 203  0.4+  0.0
    130817 807  0.2-  0.2+    130817 160  0.1+  0.7-
    130817 807  0.0   0.3+    130817 204  0.2-  0.3+
    
    Ephemeris:
    2013 QU1                 a,e,i = 1.18, 0.25, 35                  q = 0.8884
    Date    TT    R. A. (2000) Decl.     Delta      r     Elong.  Phase     V
    2013 07 20    21 48 30.0 +53 37 54   0.3567  1.1441   101.9    60.4    21.5
    ...
    2013 08 04    21 17 49.4 +34 00 22   0.2732  1.2036   128.4    41.3    20.5
    ...
    2013 08 12    21 02 15.5 +17 15 01   0.2535  1.2340   147.1    26.5    20.0
    ...
    2013 08 18    20 52 29.6 +03 19 47   0.2584  1.2560   158.3    17.3    19.8
    2013 08 19    20 51 04.5 +01 03 57   0.2610  1.2596   159.3    16.5    19.8
    2013 08 20    20 49 43.3 -01 09 22   0.2641  1.2631   159.9    16.0    19.8
    ...
    2013 08 26    20 43 00.7 -13 14 14   0.2926  1.2841   156.4    18.4    20.1
    ...
    2013 09 03    20 37 59.9 -25 17 09   0.3515  1.3106   144.4    26.6    20.8
    ...
    2013 09 18    20 40 19.6 -37 41 40   0.4995  1.3557   125.2    37.3    22.0
    
    A. U. Tomatic                (C) Copyright 2013 MPC           M.P.E.C. 2013-Q17
    

    Read MPEC 2013-Q16 Read MPEC 2013-Q18


    MPEC number:

    Enter an MPEC number in one of the following forms:

    • 1997-B01 (the full form)
    • J97B01 (the packed version of the full form)
    • B01 (the abbreviated form)